Flag for Netherlands Weather past 2 weeks in Amsterdam, Netherlands

Now
54 °F

Clear.


Feels Like: 54 °F
Forecast: 60 / 85 °F
Wind: 2 mph from Southeast

Location: Amsterdam Schiphol Airport

Current Time: Aug 2, 2015 at 3:19:13 AM

Latest Report: Aug 2, 2015 at 2:55 AM


Visibility: 10 mi

Pressure: 30.07 "Hg

Humidity: 82%

Dew point: 48 °F

Location of AmsterdamLocation

Historic Weather in Amsterdam — Graph

°F

Amsterdam temperature yesterday

Maximum temperature yesterday: 70 °F (at 1:25 PM)
Minimum temperature yesterday: 48 °F (at 3:55 AM)
Average temperature yesterday: 60 °F

Past Weeks' High & Low Weather Summary

 TemperatureHumidityPressure
High75 °F (Jul 21, 3:55 PM)100% (Jul 19, 10:55 AM)30.15 "Hg (Jul 19, 10:55 AM)
Low46 °F (Jul 31, 3:55 AM)38% (Aug 1, 12:25 PM)29.36 "Hg (Jul 25, 9:55 AM)
Average62 °F74%29.85 "Hg
* Reported Jul 18 1:25 AM — Aug 2 1:55 AM, Amsterdam, Weather by CustomWeather, © 2015

Note: Actual official high and low records may vary slightly from our data, if they occured in-between our weather recording intervals... More about our weather records

Advertising

Amsterdam weather history for previous 24 hours

 ConditionsComfort  
Time TempWeatherWind HumidityBarometerVisibility
1:55 AM
Sun, Aug 2
55 °FClear.2 mph77%30.07 "Hg10 mi
1:25 AM55 °FClear.2 mph77%30.07 "Hg10 mi
12:55 AM54 °FClear.2 mph82%30.07 "Hg10 mi
11:55 PM
Sat, Aug 1
55 °FClear.2 mph77%30.07 "Hg10 mi
11:25 PM57 °FClear.1 mph72%30.07 "Hg10 mi
10:55 PM57 °FClear.2 mph72%30.07 "Hg10 mi
10:25 PM59 °FSunny.2 mph63%30.07 "Hg10 mi
9:55 PM61 °FSunny.2 mph52%30.04 "Hg10 mi
9:25 PM63 °FPassing clouds.3 mph49%30.04 "HgN/A
8:55 PM64 °FSunny.6 mph46%30.04 "Hg10 mi
8:25 PM66 °FSunny.7 mph46%30.04 "Hg10 mi
7:55 PM68 °FSunny.8 mph43%30.04 "Hg10 mi
7:25 PM68 °FPassing clouds.8 mph46%30.01 "HgN/A
6:55 PM68 °FPassing clouds.8 mph43%30.01 "HgN/A
6:25 PM70 °FSunny.3 mph43%30.01 "Hg10 mi
5:55 PM70 °FPassing clouds.6 mph43%30.01 "HgN/A
5:25 PM70 °FPassing clouds.7 mph43%30.01 "HgN/A
4:55 PM68 °FSunny.9 mph46%30.01 "Hg10 mi
4:25 PM68 °FPassing clouds.8 mph49%30.01 "HgN/A
3:55 PM68 °FPassing clouds.9 mph46%30.01 "HgN/A
3:25 PM68 °FSunny.10 mph46%30.01 "Hg10 mi
2:55 PM70 °FPassing clouds.8 mph43%30.01 "HgN/A
2:25 PM68 °FPassing clouds.6 mph43%30.01 "HgN/A
1:55 PM68 °FSunny.6 mph43%30.01 "Hg10 mi
1:25 PM70 °FSunny.2 mph40%30.01 "Hg10 mi
12:55 PM68 °FPassing clouds.6 mph38%30.01 "HgN/A
12:25 PM68 °FSunny.3 mph38%30.01 "Hg10 mi
11:55 AM68 °FPassing clouds.5 mph46%30.01 "HgN/A
11:25 AM66 °FPassing clouds.3 mph43%30.01 "HgN/A
10:55 AM66 °FPassing clouds.2 mph52%30.01 "HgN/A
10:25 AM64 °FPassing clouds.2 mph56%30.01 "HgN/A
9:55 AM63 °FPassing clouds.3 mph59%30.01 "HgN/A
9:25 AM61 °FPassing clouds.3 mph63%30.01 "HgN/A
8:55 AM59 °FPassing clouds.3 mph68%30.01 "HgN/A
8:25 AM57 °FSunny.5 mph72%30.01 "Hg10 mi
7:55 AM55 °FPassing clouds.3 mph77%30.01 "HgN/A
7:25 AM52 °FPassing clouds.3 mph82%30.01 "HgN/A
6:55 AM52 °FClear.3 mph77%30.01 "Hg10 mi
6:25 AM48 °FClear.3 mph87%30.01 "Hg10 mi
5:55 AM48 °FPassing clouds.5 mph87%30.01 "HgN/A
4:55 AM50 °FClear.2 mph82%30.01 "Hg10 mi
4:25 AM48 °FClear.3 mph87%30.01 "Hg10 mi
3:55 AM48 °FClear.5 mph87%30.01 "Hg10 mi
3:25 AM50 °FClear.5 mph82%30.01 "Hg10 mi
Weather by CustomWeather, © 2015

See weather overviewHow to use our weather pages